www.pogodaiklimat.ru

Погода и климат >> Архив погоды >> Россия >> Чукотка >> Анадырь


АРХИВ ПОГОДЫ в Анадыре

Время (UTC), дата Ветер
(напр.,м/с)
 
Видим.   Явления Облачность Т
(С)
Тd
(С)
f
(%)
Тe
(С)
Тes
(С)
Комфортность P
(гПа)
Po
(гПа)
Тmin
(С)
Tmax
(С)
R
(мм)
R24
(мм)
S
(см)
09 11.02 С 6
{9}
50 км 9/0
[Ac trans Ci fib]
-25.4 -29.2 70 -38 -38 опасность
обморожения
1012.9 1004.5
12 11.02 С 6
{10}
50 км 9/0
[Ac trans Ci fib]
-24.9 -28.8 70 -37 -37 опасность
обморожения
1006.9 998.5
15 11.02 С 12-16
{16}
3000 м слаб. ливневой снег {метель} 10/10 600 м
[Cb cap]
-20.3 -22.8 80 -35 -35 опасность
обморожения
998.3 990.1
18 11.02 СВ 18-20
{23}
100 м 10/10 600 м
[Cb cap]
-17.7 -20.3 80 -34 -34 опасность
обморожения
991.4 983.3 -27.2 0.8 36
21 11.02 С 21-25
{27}
<100 м сильная метель {ливн. осадки} ?/? -17.9 -20.5 80 -35 -35 опасность
обморожения
987.6 979.5
00 12.02 С 13-16
{26}
600 м слаб. ливневой снег {метель} 10/10 300 м
[Cb cap]
-18.2 -20.8 80 -33 -33 опасность
обморожения
991.0 982.9
03 12.02 СЗ 15-17
{17}
5000 м слаб. ливневой снег {метель} 10/10 300 м
[Cb cap]
-20.7 -23.2 80 -37 -37 опасность
обморожения
994.0 985.8
06 12.02 СЗ 15-18
{21}
600 м сильная метель {ливн. осадки} 3/3 600 м
[Sc]
-24.7 -27.8 75 -42 -42 опасность
обморожения
998.8 990.5 -17.5 6
09 12.02 З 13-15
{18}
3000 м метель 3/3 600 м
[Sc]
-26.5 -29.7 74 -44 -44 опасность
обморожения
1003.1 994.8
12 12.02 СЗ 9-11
{15}
15 км ледяные иглы {снег, метель} 3/0
[Ac trans]
-26.6 -29.7 75 -42 -42 опасность
обморожения
1006.9 998.5
15 12.02 СЗ 5
{11}
50 км {снег, метель} 3/0
[Ac trans]
-27.2 -30.3 75 -39 -39 опасность
обморожения
1009.9 1001.5
18 12.02 С 2
{7}
50 км {снег, метель} 3/0
[Ac trans]
-28.7 -31.8 75 -36 -36 опасность
обморожения
1011.7 1003.1 -28.9 0.0 36
21 12.02 СЗ 4
{5}
50 км 8/5 600 м
[Sc Ac trans]
-28.2 -31.3 75 -39 -39 опасность
обморожения
1013.9 1005.2 -29.0
00 13.02 СЗ 5
{7}
15 км слаб. ливневой снег 10/10 600 м
[Cb cap]
-26.8 -30.7 69 -39 -39 опасность
обморожения
1014.9 1006.4
03 13.02 СЗ 8
{9}
10 км слаб. ливневой снег {метель} 10/10 600 м
[Cb cap]
-26.4 -29.5 75 -41 -41 опасность
обморожения
1016.0 1007.5
06 13.02 СЗ 8
{9}
8000 м слаб. ливневой снег {метель} 10/10 600 м
[Cb cap]
-26.3 -29.4 75 -41 -41 опасность
обморожения
1018.8 1010.3 -26.1 0.6
09 13.02 СЗ 6
{10}
50 км позёмок {ливн. осадки} 6/3 600 м
[Sc Ac trans]
-27.8 -30.9 75 -41 -41 опасность
обморожения
1022.1 1013.4
12 13.02 СЗ 8
{10}
15 км ледяные иглы {снег} 3/0
[Ac trans]
-30.0 -33.0 75 -45 -45 опасность
обморожения
1024.5 1015.7
15 13.02 СЗ 8
{12}
50 км позёмок {снег} 3/0
[Ac trans]
-28.9 -32.0 74 -44 -44 опасность
обморожения
1026.4 1017.6
18 13.02 СЗ 3
{10}
50 км {снег, метель} 3/0
[Ac trans]
-29.6 -33.3 70 -39 -39 опасность
обморожения
1028.3 1019.5 -30.2 0.0 36
21 13.02 С 4
{6}
50 км 3/0
[Ci fib]
-29.5 -33.3 69 -41 -41 опасность
обморожения
1027.9 1019.1 -30.4
00 14.02 С 3
{6}
50 км 8/0
[Cs]
-28.3 -32.8 65 -38 -37 опасность
обморожения
1026.9 1018.1
03 14.02 С 3
{5}
50 км 9/0
[Cs]
-28.6 -32.4 70 -38 -38 опасность
обморожения
1025.0 1016.2
06 14.02 С 2
{8}
50 км 9/0
[Cs]
-27.7 -31.5 70 -35 -35 опасность
обморожения
1022.0 1013.3 -27.7
09 14.02 С 2
{5}
50 км 9/0
[Ac As]
-23.3 -27.2 70 -30 -30 по сезону 1018.4 1009.9
12 14.02 СВ 11-14
{14}
50 км позёмок 10/5 600 м
[Cb cap As op]
-22.0 -25.2 75 -37 -37 опасность
обморожения
1012.5 1004.2
15 14.02 СВ 13-16
{17}
5000 м слаб. ливневой снег {метель} 10/10 600 м
[Cb cap]
-19.5 -22.1 80 -34 -34 опасность
обморожения
1005.7 997.4
18 14.02 В 23-29
{29}
100 м слаб. ливневой снег {метель} 10/10 600 м
[Cb cap]
-9.4 -11.0 88 -24 -24 по сезону 996.1 988.2 -27.7 2 37
21 14.02 В 25-33
{37}
<100 м сильная метель {ливн. осадки} ?/? -9.1 -10.6 89 -24 -24 по сезону 992.5 984.7
00 15.02 В 16-20
{33}
4000 м метель {ливн. осадки} 9/9 600 м
[Cb cap]
-6.8 -8.8 86 -19 -19 тепло 994.0 986.3
03 15.02 ЮВ 14-16
{20}
6000 м метель 9/9 600 м
[Cb cap]
-5.2 -6.6 90 -16 -16 тепло 994.0 986.3
06 15.02 В 11-13
{18}
50 км позёмок 9/9 600 м
[Cb cap]
-4.3 -5.2 93 -14 -14 тепло 994.3 986.6 -3.9 4
09 15.02 ЮВ 16-19
{19}
6000 м метель 10/10 600 м
[Cb cap]
-2.9 -3.6 95 -14 -14 тепло 993.0 985.4
12 15.02 ЮВ 15-17
{22}
20 км позёмок {ливн. осадки} 10/10 300 м
[Cb cap]
-1.8 -2.6 94 -12 -12 тепло 993.3 985.7
15 15.02 ЮВ 13-16
{19}
50 км {метель} 10/10 600 м
[Cb cap]
-2.2 -2.8 96 -12 -12 тепло 992.8 985.2
18 15.02 В 18-22
{22}
6000 м слаб. ливневой снег {метель} 10/10 600 м
[Cb cap]
-2.4 -3.0 96 -14 -14 тепло 991.3 983.8 -4.3 0.0 37
21 15.02 В 16-19
{21}
300 м ливневой снег {метель} 10/10 300 м
[Cb cap]
-2.1 -4.2 86 -13 -13 тепло 988.0 980.5
00 16.02 В 16-25
{25}
500 м слаб. ливневой снег {метель} 10/10 300 м
[Cb cap]
-2.5 -3.8 91 -13 -13 тепло 982.5 975.0
03 16.02 В 21-26
{30}
<100 м сильная метель {ливн. осадки} ?/? -2.8 -4.1 91 -15 -15 тепло 975.2 967.8
06 16.02 В 22-27
{30}
<100 м сильная метель {ливн. осадки} ?/? -1.2 -1.9 95 -13 -13 тепло 969.7 962.4 -1.2 5
09 16.02 ЮВ 21-26
{27}
3000 м слаб. ливневой снег {метель} 10/10 300 м
[Cb cap]
-0.5 -2.0 90 -12 -12 тепло 969.9 962.6
12 16.02 ЮВ 20-24
{26}
50 км позёмок {ливн. осадки} 10/10 600 м
[Cb cap]
-1.1 -2.7 89 -12 -12 тепло 971.3 964.0
15 16.02 ЮВ 18-22
{26}
50 км позёмок 10/10 600 м
[Cb cap]
-1.2 -2.9 88 -12 -12 тепло 973.9 966.5
18 16.02 ЮВ 15-16
{22}
50 км позёмок 10/10 600 м
[Cb cap]
-2.4 -3.6 91 -13 -13 тепло 977.5 970.1 -2.4 0.3 37
21 16.02 ЮВ 10-12
{16}
50 км {метель} 9/8 600 м
[Cb cap Ac trans]
-3.8 -5.0 91 -13 -13 тепло 981.8 974.2 -4.2
00 17.02 ЮВ 13-15
{17}
50 км {метель} 9/8 600 м
[Cb cap Ac trans]
-2.5 -3.8 91 -13 -13 тепло 984.2 976.7
03 17.02 Ю 7
{17}
50 км 8/4 600 м
[Sc Ac trans Ci fib]
-5.3 -7.1 87 -14 -14 тепло 988.3 980.7
06 17.02 Ю 8-10
{13}
50 км 9/8 600 м
[Sc Ac trans]
-5.3 -7.1 87 -14 -14 тепло 992.0 984.4 -2.2
09 17.02 ЮВ 6
{10}
50 км 6/3 600 м
[Sc Ac trans]
-8.1 -10.8 81 -16 -16 тепло 995.4 987.5
12 17.02 ЮВ 7
{11}
50 км 8/3 600 м
[Sc Ac trans]
-5.9 -8.5 82 -14 -14 тепло 995.9 988.2
15 17.02 ЮВ 5
{9}
50 км 8/0
[Ac trans]
-7.0 -9.5 82 -14 -14 тепло 996.0 988.3
18 17.02 ЮВ 4
{10}
5000 м слаб. ливневой снег 10/10 600 м
[Cb cap]
-5.7 -6.8 92 -12 -12 тепло 997.0 989.3 -8.4 0.0 37
21 17.02 Ю 4
{7}
50 км {ливн. осадки, метель} 4/4 600 м
[Sc]
-8.7 -10.6 86 -16 -15 тепло 998.2 990.3 -8.7
00 18.02 ЮВ 4
{8}
50 км {ливн. осадки, метель} 9/9 600 м
[Cb cap]
-5.7 -7.9 84 -12 -12 тепло 998.4 990.7
03 18.02 В 4
{8}
50 км 9/9 600 м
[Cb cap]
-5.1 -7.2 85 -12 -12 тепло 997.9 990.2
06 18.02 ЮВ 8
{10}
50 км позёмок 8/5 600 м
[Cb cap Ac trans]
-5.3 -7.8 83 -14 -14 тепло 998.7 991.0 -4.1 0.0

 

Местоположение метеостанции Анадырь (Чукотка, Россия): широта 64.78 долгота 177.50 высота над уровнем моря 61 м.

В архиве по умолчанию представлена погода в Анадыре за последнюю неделю. Архивные данные за месяц целиком и за предыдущие месяцы, начиная с января 2011 года, Вы можете получить, выбрав интересующий диапазон дат из раскрывающегося списка и нажав кнопку "Ввод!".


*Определитесь, кто Вы:
робот инопланетянин человек

Внимание! Время в таблицах - всемирное. Для получения местного времени необходимо прибавить поправку, которая равна 12 ч.

Смотрите также архив погоды в соседних городах и на ближайших метеорологических станциях:

Погода в Анадыре АМС (Чукотка, Россия) (7 км)
Погода в Канчалане (Чукотка, Россия) (58 км)
Погода в Танюрере (Чукотка, Россия) (147 км)
Погода в Эньмувееме (Чукотка, Россия) (263 км)
Погода в Марково (Чукотка, Россия) (337 км)
Погода в Майской (Чукотка, Россия) (457 км)
Погода в Слаутном (Камчатский край, Россия) (504 км)
Погода в Паляваам-Глубокой (Чукотка, Россия) (505 км)
Погода в Илирнее (Чукотка, Россия) (513 км)
Погода в Комсомольской (Чукотка, Россия) (525 км)

Пояснения к столбцам:

Ветер - указаны скорость ветра в м/с - средняя за 10 мин, порывы в срок и между сроками (в фигурных скобках) и направление, откуда дует ветер: С - северный, СВ - северо-восточный, В - восточный, ЮВ - юго-восточный, Ю - южный, ЮЗ - юго-западный, З - западный, СЗ - северо-западный.
Видимость - горизонтальная дальность видимости в метрах или километрах. При видимости от 1 до 10 км при отсутствии осадков обычно наблюдается дымка, при ухудшении видимости до 1 км и менее - туман. В сухую погоду видимость может ухудшаться дымом, пылью или мглою.
Явления - указаны атмосферные явления, наблюдавшиеся в срок или в последний час перед сроком; фигурными скобками обозначены явления, наблюдавшиеся между сроками (за 1-3 часа до срока); квадратными скобками обозначены град или гололедные отложения с указанием их диаметра в мм.
Облачность - указаны через наклонную черту общая и нижняя облачность в баллах и высота нижней границы облаков в метрах; квадратными скобками обозначены формы облаков: Ci - перистые, Cs - перисто-слоистые, Cc - перисто-кучевые, Ac - высококучевые, As - высокослоистые, Sc - слоисто-кучевые, Ns - слоисто-дождевые, Cu - кучевые, Cb - кучево-дождевые. Подробнее классификацию облаков см. в Атласе облаков (PDF).
T - Температура воздуха - температура, измеренная на высоте 2 м над землей.
Td - Температура точки росы - температура, при понижении до которой содержащийся в воздухе водяной пар достигнет насыщения.
f - Относительная влажность воздуха - влажноcть воздуха, измеренная на высоте 2 м над землей.
Te - Эффективная температура - температура, которую ощущает одетый по сезону человек в тени. Характеристика душности погоды. При расчете учитывается влияние влажности воздуха и скорости ветра на теплоощущения человека.
Tes - Эффективная температура на солнце - температура, которую ощущает человек, с поправкой на солнечный нагрев. Характеристика знойности погоды. Зависит от высоты солнца над горизонтом, облачности и скорости ветра. Ночью, в пасмурную погоду, а также при ветре 12 м/с и более поправка равна нулю.
P - Атмосферное давление - приведенное к уровню моря атмосферное давление.
Po - Атмосферное давление - измеренное на уровне метеостанции атмосферное давление.
Tmin - Минимальная температура - минимум температуры воздуха на высоте 2 м над землей.
Tmax - Максимальная температура - максимум температуры воздуха на высоте 2 м над землей.
R - Количество осадков - Количество выпавших осадков за период времени, мм. При наведении курсора мыши на число - период времени, за который выпало указанное количество осадков.
R24 - Количество осадков - Количество выпавших осадков за 24 часа, мм.
S - Снежный покров - Высота снежного покрова, см. При наведении курсора мыши на число - состояние снежного покрова и степень покрытия местности в баллах.